EDT,Max TemperatureF,Mean TemperatureF,Min TemperatureF,Max Dew PointF,MeanDew PointF,Min DewpointF,Max Humidity, Mean Humidity, Min Humidity, Max Sea Level PressureIn, Mean Sea Level PressureIn, Min Sea Level PressureIn, Max VisibilityMiles, Mean VisibilityMiles, Min VisibilityMiles, Max Wind SpeedMPH, Mean Wind SpeedMPH, Max Gust SpeedMPH,PrecipitationIn, CloudCover, Events, WindDirDegrees
2013-4-1,62,48,35,43,34,9,93,68,31,29.88,29.70,29.60,10,8,2,28,9,39,0.00,3,Rain,284
2013-4-2,42,36,30,15,11,7,54,37,26,30.07,29.97,29.91,10,10,10,24,13,34,0.00,2,,293
2013-4-3,45,37,30,13,11,7,49,36,25,30.27,30.14,30.06,10,10,10,25,15,34,0.00,1,,298
2013-4-4,51,39,28,30,19,11,73,47,28,30.38,30.25,30.08,10,10,10,18,9,22,0.00,0,,222
2013-4-5,60,48,37,29,21,13,67,39,19,30.06,29.88,29.71,10,10,10,24,6,31,0.00,1,,302
2013-4-6,50,42,33,26,13,3,73,37,15,30.32,30.22,30.00,10,10,10,21,12,31,0.00,0,,312
2013-4-7,52,42,33,41,33,24,86,67,46,30.30,30.17,30.01,10,10,9,20,6,32,0.00,2,,174
2013-4-8,72,56,41,42,39,36,93,61,29,30.07,30.02,29.98,10,9,5,14,5,,0.00,1,,136
2013-4-9,78,62,46,48,42,36,90,51,23,29.99,29.94,29.90,10,9,5,20,7,29,0.00,1,,315
2013-4-10,71,60,51,54,47,37,94,67,39,29.94,29.88,29.81,10,8,2,14,6,28,0.51,4,Rain-Thunderstorm,119
2013-4-11,60,52,45,56,46,35,97,80,59,30.06,29.94,29.79,10,7,0,13,7,,0.02,7,Fog-Rain,76
2013-4-12,45,42,39,39,36,29,93,82,58,30.03,29.85,29.72,10,6,1,26,13,43,0.42,8,Rain,76
2013-4-13,54,45,37,37,34,30,89,67,45,29.96,29.87,29.76,10,10,9,10,6,,0.04,5,Rain,297
2013-4-14,54,48,43,39,28,23,76,46,32,30.22,30.07,29.96,10,10,9,23,8,32,0.00,3,,315
2013-4-15,55,46,39,34,28,23,68,50,40,30.38,30.33,30.23,10,10,10,10,4,,0.00,1,,128
2013-4-16,60,50,41,50,44,33,86,75,62,30.38,30.27,30.12,10,10,10,16,6,25,0.00,5,,147
2013-4-17,66,60,51,53,38,29,84,50,27,30.28,30.19,30.11,10,10,10,15,5,23,0.00,3,Rain,356
2013-4-18,57,50,44,48,40,31,86,67,45,30.35,30.27,30.11,10,10,7,18,8,23,0.00,5,,111
2013-4-19,70,60,51,59,56,48,100,88,70,30.10,29.85,29.65,10,4,0,20,7,28,0.04,7,Fog-Rain,162
2013-4-20,57,52,43,57,35,21,100,57,29,30.29,29.92,29.69,10,9,2,25,14,32,0.20,5,Rain,298
2013-4-21,52,42,33,29,20,16,62,42,25,30.63,30.52,30.32,10,10,10,23,11,28,0.00,0,,341
2013-4-22,52,44,37,34,28,20,76,56,31,30.66,30.60,30.51,10,10,10,21,8,29,0.00,1,,91
2013-4-23,51,44,37,38,34,28,86,71,63,30.48,30.30,30.12,10,9,2,12,9,21,0.00,6,,28
2013-4-24,66,52,39,48,42,36,93,74,47,30.09,29.96,29.85,10,8,2,14,9,22,0.00,2,,218
2013-4-25,62,54,44,49,30,18,92,46,19,30.26,30.12,29.87,10,10,4,25,10,37,0.00,2,,294
2013-4-26,63,51,39,36,30,25,79,47,24,30.41,30.34,30.26,10,10,10,14,5,17,0.00,0,,313
2013-4-27,66,55,44,34,27,19,58,36,18,30.42,30.36,30.27,10,10,10,12,8,18,0.00,0,,353
2013-4-28,64,54,43,44,36,26,86,56,29,30.31,30.27,30.22,10,10,8,13,3,18,0.00,0,,146
2013-4-29,55,52,48,47,43,37,83,70,59,30.24,30.22,30.20,10,10,9,12,3,,0.03,7,Rain,126
2013-4-30,63,56,46,43,36,24,74,52,23,30.34,30.29,30.22,10,10,10,15,5,21,0.00,4,,114